Kota Bharu, Malaysia

12:06 PM MYT on December 03, 2016 (GMT +0800)
Sultan Ismail Petra

Weather History for WMKC - March, 2013

Change the Weather History Date:

Sunday, March 17, 2013

  Actual Average Record
Temperature  
Mean Temperature 80 °F -  
Max Temperature 87 °F - - ()
Min Temperature 74 °F - - ()
Cooling Degree Days 16    
Growing Degree Days 30 (Base 50)    
Moisture  
Dew Point 76 °F    
Average Humidity 84    
Maximum Humidity 100    
Minimum Humidity 68    
Precipitation  
Precipitation 0.01 in - - ()
Sea Level Pressure  
Sea Level Pressure 29.88 in    
Wind  
Wind Speed 4 mph ()    
Max Wind Speed 12 mph    
Max Gust Speed -    
Visibility 6.7 miles    
Events Rain    
T = Trace of Precipitation, MM = Missing Value Source: Averaged Metar Reports

Daily Weather History Graph

Daily Weather History Graph

Search for Another Location

Airport or City:

Trip Planner

Search our weather history database for the weather conditions in past years. The results will help you decide how hot, cold, wet, or windy it might be!

Date:

Astronomy

Mar. 17, 2013 Rise Set
Actual Time 7:16 AM MYT 7:21 PM MYT
Civil Twilight 6:55 AM MYT 7:42 PM MYT
Nautical Twilight 6:31 AM MYT 8:06 PM MYT
Astronomical Twilight 6:07 AM MYT 8:31 PM MYT
Moon 11:08 AM MYT (3/17) 11:49 PM MYT (3/17)
Length of Visible Light 12h 47m
Length of Day
12h 05m
Waxing Crescent, 27% of the Moon is Illuminated
Mar 17
Waxing Crescent
Mar 20
First Quarter
Mar 27
Full
Apr 3
Last Quarter
Apr 10
New

Hourly Weather History & Observations

Time (MYT) Temp. Heat Index Dew Point Humidity Pressure Visibility Wind Dir Wind Speed Gust Speed Precip Events Conditions
12:00 AM 80.6 °F 86.2 °F 75.2 °F 84% 29.95 in 6.2 mi East 3.5 mph - N/A   Mostly Cloudy
1:00 AM 78.8 °F - 77.0 °F 94% 29.95 in 6.2 mi SSW 2.3 mph - N/A   Mostly Cloudy
2:00 AM 78 °F - 76 °F 91% 29.94 in 10 mi SW 3.5 mph - -   Scattered Clouds
2:00 AM 77.0 °F - 75.2 °F 94% 29.92 in 6.2 mi SW 3.5 mph - N/A   Mostly Cloudy
3:00 AM 77.0 °F - 75.2 °F 94% 29.89 in 6.2 mi SSW 2.3 mph - N/A   Mostly Cloudy
4:00 AM 75.2 °F - 75.2 °F 100% 29.89 in 6.2 mi SSW 3.5 mph - N/A   Mostly Cloudy
5:00 AM 76 °F - 74 °F 93% 29.88 in 9 mi SSW 2.3 mph - -   Partly Cloudy
5:00 AM 77.0 °F - 73.4 °F 89% 29.89 in 6.2 mi South 1.2 mph - N/A Rain Light Rain
6:00 AM 77.0 °F - 73.4 °F 89% 29.89 in 6.2 mi SSE 3.5 mph - N/A   Mostly Cloudy
7:00 AM 77.0 °F - 75.2 °F 94% 29.89 in 6.2 mi SSE 2.3 mph - N/A   Mostly Cloudy
8:00 AM 75 °F - 74 °F 96% 29.92 in 5 mi SW 2.3 mph - -   Mist
8:00 AM 75.2 °F - 73.4 °F 94% 29.92 in 5.0 mi SW 2.3 mph - N/A   Mostly Cloudy
9:00 AM 78.8 °F - 75.2 °F 89% 29.92 in 6.2 mi SSW 3.5 mph - N/A   Mostly Cloudy
10:00 AM 80.6 °F 87.1 °F 77.0 °F 89% 29.92 in 6.2 mi South 3.5 mph - N/A   Mostly Cloudy
11:00 AM 83 °F - 76 °F 75% 29.94 in 7 mi East 2.3 mph - -   Haze
11:00 AM 82.4 °F 90.9 °F 77.0 °F 84% 29.92 in 6.2 mi East 2.3 mph - N/A   Mostly Cloudy
12:00 PM 86.0 °F 96.9 °F 77.0 °F 74% 29.92 in 6.2 mi East 9.2 mph - N/A   Mostly Cloudy
1:00 PM 86.0 °F 96.9 °F 77.0 °F 74% 29.89 in 6.2 mi East 9.2 mph - N/A   Mostly Cloudy
2:00 PM 87 °F - 78 °F 68% 29.88 in 9 mi ENE 9.2 mph - -   Haze
2:00 PM 87.8 °F 99.7 °F 77.0 °F 70% 29.86 in 6.2 mi ENE 9.2 mph - N/A   Mostly Cloudy
3:00 PM 86.0 °F 96.9 °F 77.0 °F 74% 29.83 in 6.2 mi East 11.5 mph - N/A   Mostly Cloudy
4:00 PM 86.0 °F 96.9 °F 77.0 °F 74% 29.80 in 6.2 mi East 11.5 mph - N/A   Mostly Cloudy
5:00 PM 86 °F - 77 °F 68% 29.80 in 9 mi East 11.5 mph - -   Haze
5:00 PM 86.0 °F 96.9 °F 77.0 °F 74% 29.80 in 6.2 mi East 11.5 mph - N/A   Mostly Cloudy
6:00 PM 84.2 °F 94.1 °F 77.0 °F 79% 29.80 in 6.2 mi ENE 11.5 mph - N/A   Mostly Cloudy
7:00 PM 82.4 °F 90.9 °F 77.0 °F 84% 29.80 in 6.2 mi East 9.2 mph - N/A   Mostly Cloudy
8:00 PM 81 °F - 76 °F 80% 29.82 in 9 mi East 8.1 mph - -   Haze
8:00 PM 80.6 °F 86.2 °F 75.2 °F 84% 29.80 in 6.2 mi East 8.1 mph - N/A   Mostly Cloudy
9:00 PM 80.6 °F 87.1 °F 77.0 °F 89% 29.83 in 6.2 mi East 6.9 mph - N/A   Mostly Cloudy
10:00 PM 80.6 °F 86.2 °F 75.2 °F 84% 29.83 in 6.2 mi East 4.6 mph - N/A   Mostly Cloudy
11:00 PM 80 °F - 76 °F 82% 29.88 in 9 mi East 3.5 mph - -   Haze
11:00 PM 80.6 °F 86.2 °F 75.2 °F 84% 29.86 in 6.2 mi East 3.5 mph - N/A   Mostly Cloudy